Regional Weather Roundup
Issued by NWS Glasgow, MT

Home | Current Version | Previous Version | Text Only | Print | Product List | Glossary On
Versions: 1 2 3 4 5 6 7 8 9 10 11 12 13 14 15 16 17 18 19 20 21 22 23 24 25 26 27 28 29 30 31 32 33 34 35 36 37 38 39 40 41 42 43 44 45 46 47 48 49 50
000
ASUS45 KGGW 241915
RWRGGW
HOURLY REGIONAL WEATHER ROUNDUP FOR NORTHEAST MONTANA
NATIONAL WEATHER SERVICE GLASGOW MONTANA
100 PM MDT WED MAY 24 2017

NOTE: "FAIR" INDICATES FEW OR NO CLOUDS BELOW 12,000 FEET WITH NO
SIGNIFICANT WEATHER AND/OR OBSTRUCTIONS TO VISISBILITY.

NORTHEAST MONTANA


CITY           SKY/WX    TMP DP  RH WIND       PRES   REMARKS
GLASGOW        CLOUDY    76  27  16 W20G35    29.26R
PLENTYWOOD       N/A     70  34  26 S30G43      N/A
WOLF POINT     MOSUNNY   85  42  22 S9G22     29.23F
JORDAN           N/A     74  42  31 NW29G41   29.27R
WINNETT          N/A     71  30  21 W18G28      N/A
SIDNEY         CLOUDY    76  41  28 S26G36    29.33F
GLENDIVE       MOSUNNY   77  41  27 S26       29.32F
MALTA            N/A     77  32  19 W25G38      N/A
SCOBEY           N/A     78  42  27 SE12G33   29.29F
OPHEIM           N/A     72  28  20 W22       29.01F

FORT PECK REPORTS


CITY           SKY/WX    TMP DP  RH WIND       PRES   REMARKS
FORT PECK        N/A     78  45  30 W21G30      N/A
THE PINES        N/A     78  37  22 W2G15       N/A

SOUTHEAST MONTANA


CITY           SKY/WX    TMP DP  RH WIND       PRES   REMARKS
BILLINGS       PTSUNNY   79  39  23 SW15G23   29.30F
MILES CITY     SUNNY     83  45  26 SE17G26   29.30F
BAKER          SUNNY     73  40  30 S24G39    29.42F
LIVINGSTON     CLOUDY    71  37  28 W25G33    29.39F

CENTRAL MONTANA


CITY           SKY/WX    TMP DP  RH WIND       PRES   REMARKS
HAVRE          SUNNY     71  11  10 W37G46    29.31S
LEWISTOWN      PTSUNNY   65  27  23 NW30G47   29.39F
GREAT FALLS    SUNNY     65  22  19 SW36G45   29.42F
CUT BANK       SUNNY     57  15  19 W39G51    29.35F
HELENA         SUNNY     66  15  14 W28G39    29.53F
BUTTE          SUNNY     59  14  17 W22G35    29.61S
BOZEMAN        SUNNY     69  27  20 NW30G37   29.47S

WESTERN MONTANA


CITY           SKY/WX    TMP DP  RH WIND       PRES   REMARKS
MISSOULA       SUNNY     61  22  22 W22G31    29.65S
KALISPELL      NOT AVBL

NORTH DAKOTA


CITY           SKY/WX    TMP DP  RH WIND       PRES   REMARKS
WILLISTON      CLOUDY    72  37  28 S22G35    29.37F
DICKINSON      SUNNY     68  32  26 S31G41    29.45F
MINOT          SUNNY     70  35  27 SE21G36   29.50F
BISMARCK       SUNNY     67  40  37 SE23G29   29.59F

SOUTHERN SASKATCHEWAN


CITY           SKY/WX    TMP DP  RH WIND       PRES   REMARKS
REGINA         MOSUNNY   75  37  25 S33G49    29.21F
MOOSE JAW      PTSUNNY   79  45  29 S21G35    29.12F
ESTEVAN        MOSUNNY   68  34  28 S33G41    29.37F
SWIFT CURRENT  NOT AVBL




USA.gov is the U.S. government's official web portal to all federal, state and local government web resources and services.